Weather History for KBMT - May, 2014

Change the Weather History Date:

Tuesday, May 6, 2014

  Actual Average (KBPT) Record (KBPT)
Temperature  
Mean Temperature 70 °F 74 °F  
Max Temperature 81 °F 83 °F 90 °F (1909)
Min Temperature 60 °F 65 °F 47 °F (2013)
Degree Days  
Heating Degree Days 0 0  
Month to date heating degree days 0  
Since 1 July heating degree days 1400  
Cooling Degree Days 6 9  
Month to date cooling degree days 49  
Year to date cooling degree days 276  
Growing Degree Days 20 (Base 50)    
Moisture  
Dew Point 62 °F    
Average Humidity 70    
Maximum Humidity 97    
Minimum Humidity 45    
Precipitation  
Precipitation 0.00 in 0.18 in 4.30 in (1912)
Month to date precipitation 0.98  
Year to date precipitation 16.56  
Snow  
Snow 0.00 in 0.00 in 0.00 in ()
Month to date snowfall 0.0  
Since 1 July snowfall T  
Snow Depth -    
Sea Level Pressure  
Sea Level Pressure 29.92 in    
Wind  
Wind Speed 10 mph (South)    
Max Wind Speed 18 mph    
Max Gust Speed 25 mph    
Visibility 10 miles    
Events      
T = Trace of Precipitation, MM = Missing Value Source: NWS Daily Summary

Daily Weather History Graph

Daily Weather History Graph

Search for Another Location

Airport or City:

Trip Planner

Search our weather history database for the weather conditions in past years. The results will help you decide how hot, cold, wet, or windy it might be!

Date:

Astronomy

May. 06, 2014 Rise Set
Actual Time 6:29 AM CDT 7:57 PM CDT
Civil Twilight 6:04 AM CDT 8:23 PM CDT
Nautical Twilight 5:33 AM CDT 8:54 PM CDT
Astronomical Twilight 5:01 AM CDT 9:26 PM CDT
Moon 12:41 PM CDT (5/6) 1:21 AM CDT (5/6)
Length of Visible Light 14h 19m
Length of Day
13h 27m
Waxing Crescent, 46% of the Moon is Illuminated
May 6
Waxing Crescent
May 6
First Quarter
May 14
Full
May 21
Last Quarter
May 28
New

Hourly Weather History & Observations

Time (CDT) Temp. Heat Index Dew Point Humidity Pressure Visibility Wind Dir Wind Speed Gust Speed Precip Events Conditions
12:15 AM 60.8 °F - 59.2 °F 94% 29.96 in 10.0 mi South 10.4 mph - N/A   Clear
12:35 AM 61.0 °F - 59.4 °F 94% 29.96 in 10.0 mi South 9.2 mph - N/A   Clear
12:55 AM 60.8 °F - 59.5 °F 96% 29.96 in 10.0 mi South 8.1 mph - N/A   Clear
1:15 AM 60.3 °F - 59.5 °F 97% 29.95 in 10.0 mi South 5.8 mph - N/A   Scattered Clouds
1:35 AM 60.4 °F - 59.5 °F 97% 29.95 in 10.0 mi South 8.1 mph - N/A   Mostly Cloudy
1:55 AM 62.8 °F - 61.0 °F 94% 29.94 in 10.0 mi South 6.9 mph - N/A   Overcast
2:15 AM 64.0 °F - 61.2 °F 90% 29.93 in 10.0 mi South 8.1 mph - N/A   Overcast
2:35 AM 65.1 °F - 60.6 °F 85% 29.92 in 10.0 mi South 8.1 mph - N/A   Overcast
6:55 AM 67.8 °F - 59.9 °F 76% 29.92 in 10.0 mi South 9.2 mph - N/A   Overcast
7:15 AM 68.9 °F - 58.5 °F 69% 29.92 in 10.0 mi SSE 8.1 mph 17.3 mph N/A   Overcast
7:35 AM 69.1 °F - 59.2 °F 71% 29.93 in 10.0 mi SSE 8.1 mph - N/A   Overcast
7:55 AM 70.0 °F - 59.7 °F 70% 29.93 in 10.0 mi South 8.1 mph - N/A   Overcast
8:15 AM 71.2 °F - 60.1 °F 68% 29.94 in 10.0 mi South 8.1 mph - N/A   Overcast
8:55 AM 72.5 °F - 59.4 °F 63% 29.95 in 10.0 mi South 13.8 mph 25.3 mph N/A   Overcast
9:15 AM 72.5 °F - 58.8 °F 62% 29.95 in 10.0 mi South 9.2 mph 24.2 mph N/A   Overcast
9:35 AM 74.8 °F - 59.9 °F 60% 29.96 in 10.0 mi South 15.0 mph 20.7 mph N/A   Overcast
9:55 AM 75.2 °F - 59.9 °F 59% 29.96 in 10.0 mi South 18.4 mph 21.9 mph N/A   Overcast
10:15 AM 74.3 °F - 61.0 °F 63% 29.96 in 10.0 mi South 15.0 mph 19.6 mph N/A   Overcast
10:35 AM 75.9 °F - 60.8 °F 59% 29.96 in 10.0 mi South 13.8 mph 23.0 mph N/A   Overcast
10:55 AM 75.4 °F - 60.6 °F 60% 29.97 in 10.0 mi South 11.5 mph 20.7 mph N/A   Overcast
11:15 AM 77.9 °F - 60.1 °F 54% 29.97 in 10.0 mi South 15.0 mph 20.7 mph N/A   Mostly Cloudy
11:35 AM 78.1 °F - 60.1 °F 54% 29.97 in 10.0 mi South 16.1 mph 23.0 mph N/A   Mostly Cloudy
11:55 AM 78.1 °F - 60.3 °F 54% 29.97 in 10.0 mi South 13.8 mph 20.7 mph N/A   Mostly Cloudy
12:15 PM 78.6 °F - 60.3 °F 53% 29.96 in 10.0 mi SSW 12.7 mph 20.7 mph N/A   Unknown
12:35 PM 80.1 °F 80.5 °F 57.6 °F 46% 29.96 in 10.0 mi South 17.3 mph 23.0 mph N/A   Unknown
12:55 PM 80.1 °F 80.7 °F 58.8 °F 48% 29.95 in 10.0 mi South 11.5 mph 21.9 mph N/A   Clear
1:15 PM 80.8 °F 81.4 °F 59.9 °F 49% 29.94 in 10.0 mi South 9.2 mph 20.7 mph N/A   Scattered Clouds
1:35 PM 81.7 °F 81.9 °F 58.8 °F 46% 29.94 in 10.0 mi South 13.8 mph 21.9 mph N/A   Scattered Clouds
1:55 PM 81.1 °F 81.3 °F 57.9 °F 45% 29.93 in 10.0 mi SSE 13.8 mph 20.7 mph N/A   Clear
2:15 PM 81.0 °F 81.2 °F 58.3 °F 46% 29.93 in 10.0 mi South 11.5 mph 20.7 mph N/A   Clear
2:35 PM 81.5 °F 82.0 °F 59.9 °F 48% 29.92 in 10.0 mi South 13.8 mph 21.9 mph N/A   Clear
3:15 PM 81.5 °F 82.1 °F 60.8 °F 49% 29.91 in 10.0 mi South 12.7 mph 23.0 mph N/A   Scattered Clouds
3:35 PM 81.3 °F 82.3 °F 61.9 °F 52% 29.90 in 10.0 mi South 13.8 mph 20.7 mph N/A   Scattered Clouds
3:55 PM 80.1 °F 81.4 °F 62.6 °F 55% 29.90 in 10.0 mi South 13.8 mph 23.0 mph N/A   Mostly Cloudy
4:15 PM 79.7 °F - 62.8 °F 56% 29.89 in 10.0 mi SSE 12.7 mph 21.9 mph N/A   Mostly Cloudy
4:35 PM 80.1 °F 81.4 °F 62.8 °F 55% 29.89 in 10.0 mi South 13.8 mph 19.6 mph N/A   Mostly Cloudy
4:55 PM 79.7 °F - 62.8 °F 56% 29.89 in 10.0 mi SSE 12.7 mph 21.9 mph N/A   Mostly Cloudy
5:15 PM 79.0 °F - 63.0 °F 58% 29.88 in 10.0 mi South 11.5 mph 19.6 mph N/A   Mostly Cloudy
5:35 PM 79.2 °F - 64.2 °F 60% 29.88 in 10.0 mi SSE 11.5 mph 20.7 mph N/A   Mostly Cloudy
5:55 PM 78.1 °F - 63.7 °F 61% 29.88 in 10.0 mi South 11.5 mph 23.0 mph N/A   Mostly Cloudy
6:15 PM 76.3 °F - 63.5 °F 64% 29.89 in 10.0 mi South 9.2 mph 19.6 mph N/A   Mostly Cloudy
6:35 PM 76.1 °F - 63.9 °F 66% 29.89 in 10.0 mi South 12.7 mph 20.7 mph N/A   Scattered Clouds
6:55 PM 75.4 °F - 64.4 °F 69% 29.88 in 10.0 mi SSE 9.2 mph 17.3 mph N/A   Scattered Clouds
7:15 PM 74.3 °F - 64.8 °F 72% 29.88 in 10.0 mi SSE 11.5 mph 19.6 mph N/A   Mostly Cloudy
7:35 PM 73.4 °F - 64.4 °F 73% 29.88 in 10.0 mi SSE 10.4 mph 17.3 mph N/A   Scattered Clouds
7:55 PM 71.8 °F - 64.4 °F 77% 29.88 in 10.0 mi SSE 6.9 mph - N/A   Clear
8:15 PM 70.7 °F - 64.4 °F 80% 29.88 in 10.0 mi SSE 6.9 mph - N/A   Clear
8:35 PM 69.8 °F - 64.6 °F 83% 29.89 in 10.0 mi SSE 5.8 mph - N/A   Clear
8:55 PM 69.4 °F - 64.8 °F 85% 29.89 in 10.0 mi SSE 6.9 mph - N/A   Clear
9:15 PM 68.9 °F - 64.8 °F 87% 29.88 in 10.0 mi SSE 8.1 mph - N/A   Clear
9:35 PM 68.9 °F - 64.9 °F 87% 29.88 in 10.0 mi SE 8.1 mph - N/A   Clear
9:55 PM 68.9 °F - 65.1 °F 88% 29.89 in 10.0 mi SE 6.9 mph - N/A   Clear
10:15 PM 68.5 °F - 65.3 °F 89% 29.89 in 10.0 mi SSE 5.8 mph - N/A   Clear
10:55 PM 68.2 °F - 65.3 °F 90% 29.91 in 10.0 mi SSE 5.8 mph - N/A   Clear
11:15 PM 67.6 °F - 65.5 °F 93% 29.91 in 10.0 mi SSE 3.5 mph - N/A   Clear
11:35 PM 66.6 °F - 64.9 °F 95% 29.92 in 10.0 mi South 3.5 mph - N/A   Clear
11:55 PM 66.0 °F - 64.9 °F 96% 29.92 in 10.0 mi Calm Calm - N/A   Clear